Regional Weather Roundup
Issued by NWS

Home | Current Version | Previous Version | Text Only | Print | Product List | Glossary Off
Versions: 1 2 3 4 5 6 7 8 9 10 11 12 13 14 15 16 17 18 19 20 21 22 23 24 25 26 27 28 29 30 31 32 33 34 35 36 37 38 39 40 41 42 43 44 45 46 47 48 49 50

000
ASUS43 KIND 242309
RWRIN

WEATHER ROUNDUP FOR INDIANA
NATIONAL WEATHER SERVICE INDIANAPOLIS IN
700 PM EDT TUE MAY 24 2016

NOTE: "FAIR" INDICATES FEW OR NO CLOUDS BELOW 12,000 FEET WITH NO
SIGNIFICANT WEATHER AND/OR OBSTRUCTIONS TO VISIBILITY.

* - STATION DOES NOT REPORT WEATHER SUCH AS PRECIPITATION OR FOG.

+ - STATION NOT QUALITY CONTROLLED BY THE NATIONAL WEATHER SERVICE.
    USE DATA WITH CAUTION...ESPECIALLY DEWPOINT AND RELATIVE
    HUMIDITY OBSERVATIONS.

INZ001>003-010>013-019-020-250000-
NORTHWEST INDIANA

CITY           SKY/WX    TMP DP  RH WIND       PRES   REMARKS
GARY /AIRPORT/ MOSUNNY   88  57  35 SW14      29.93F
KNOX *+        MOSUNNY   82  32  16 S12       29.97S
LA PORTE +     MOSUNNY   87  42  20 S9G21     29.97F
MICHIGAN CITY+ CLOUDY    82  46  28 SW12      29.96F
MONTICELLO +   MOSUNNY   84  37  18 S10G18    29.98F
RENSSELAER +   MOSUNNY   86  43  22 S15       29.97F
VALPARAISO     SUNNY     85  45  24 S15       29.96F

$$

LMZ046-743>745-250000-
SOUTHERN LAKE MICHIGAN

STATION/POSITION TIME  TEMP    WIND        PRES    WAVE
                       AIR SEA DIR/SP/G            HT
                 (UTC) (F)     (DEG/KT/KT) (MB)    (FT)
BURNS HARBOR     2200   84     210/ 13/ 19 1014.2F
MICHIGAN CITY    2200   83     190/ 12/ 15   N/A
5NW MICH CITY    2300   71 60  220/  6/  8   N/A     1

$$

INZ004-005-014>016-021>024-250000-
NORTH CENTRAL INDIANA

CITY           SKY/WX    TMP DP  RH WIND       PRES   REMARKS
GOSHEN         MOSUNNY   81  47  30 SW12      29.99S
LOGANSPORT +   SUNNY     82  46  28 SW12G17   30.01S
PERU/GRISSOM   SUNNY     82  51  33 SW13      30.00S
ROCHESTER +    SUNNY     84  50  30 SW9       30.01S
SOUTH BEND     MOSUNNY   83  46  27 S13       29.98S
WARSAW +       SUNNY     81  46  30 SW7       30.01S

$$

INZ006>009-017-018-025>027-250000-
NORTHEAST INDIANA

CITY           SKY/WX    TMP DP  RH WIND       PRES   REMARKS
ANGOLA *+      SUNNY     82  52  34 SW7       30.01S
AUBURN +       SUNNY     82  43  24 SW3       30.02S
FORT WAYNE     MOSUNNY   82  46  28 SW12      30.02S
HUNTINGTON +   SUNNY    N/A N/A N/A S5        30.01S

$$

INZ028-029-035-036-043>045-051>053-250000-
WEST CENTRAL INDIANA

CITY           SKY/WX    TMP DP  RH WIND       PRES   REMARKS
CRAWFORDSVL +  SUNNY     80  53  39 S12       30.01F
GREENCASTLE +  SUNNY     79  59  50 SW3       30.03F
LAFAYETTE      SUNNY     81  52  36 S9        29.98F
TERRE HAUTE    SUNNY     81  55  40 S13       30.02F

$$

INZ030>032-037>040-046>048-054>057-064-065-250000-
CENTRAL INDIANA

CITY           SKY/WX    TMP DP  RH WIND       PRES   REMARKS
CP ATTERBURY + PTSUNNY   81  52  36 S7        30.04F HAZE
COLUMBUS       MOSUNNY   81  54  39 S12       30.04F
FISHERS *+     MOSUNNY   79  57  47 SW6       30.03S
FRANKFORT +      N/A     83  26  12 SW10G20   30.03S
INDIANAPOLIS   MOSUNNY   80  53  39 SW13      30.01F
-EAGLE CREEK   SUNNY     81  51  35 VRB6      30.02S
KOKOMO *+      MOSUNNY   81  54  39 S12       30.01S
MARION +       SUNNY     82  45  26 SW10      30.03S
SHELBYVILLE    SUNNY     83  50  31 SW9       30.03S
ZIONSVILLE +   SUNNY     81  50  33 S14       30.03S

$$

INZ033-034-041-042-049-050-058-059-250000-
EAST CENTRAL INDIANA

CITY           SKY/WX    TMP DP  RH WIND       PRES   REMARKS
MUNCIE         SUNNY     83  43  24 W9        30.03F

$$

INZ060-061-067>069-081>083-085>088-250000-
SOUTHWEST INDIANA

CITY           SKY/WX    TMP DP  RH WIND       PRES   REMARKS
EVANSVILLE     CLOUDY    80  57  45 S7        30.04F
HUNTINGBURG *+ MOSUNNY   79  55  44 SW12      30.05S
WASHINGTON +   PTSUNNY   80  57  45 SW9       30.03S

$$

INZ062-063-066-070>080-084-089>092-250000-
SOUTH CENTRAL AND SOUTHEAST INDIANA

CITY           SKY/WX    TMP DP  RH WIND       PRES   REMARKS
BLOOMINGTON    MOSUNNY   81  55  40 SW12      30.04F
MADISON *+     SUNNY     81  45  28 SW7       30.08S
NORTH VERNON + MOSUNNY   81  59  47 CALM      30.06S
SEYMOUR +      PTSUNNY   81  55  41 SW7       30.04S

$$




USA.gov is the U.S. government's official web portal to all federal, state and local government web resources and services.